Location: Fredericksburg
(30.2750°N, 98.8720°W)
Time: 10:31:55
(UTC-05:00)

Daily predictions for brighter satellites

Satellite Brightness Start Highest point End
(mag) Time Altitude Azimuth Time Altitude Azimuth Time Altitude Azimuth
Meteor 1-18 Rocket 4.4 20:51:11 10° S 20:56:51 58° E 21:02:37 10° NNE
Cosmos 2151 Rocket 3.6 20:55:43 10° N 21:00:09 89° W 21:04:33 10° S
Cosmos 1939 Rocket 3.7 20:57:59 10° SE 21:01:43 35° ENE 21:05:28 10° N
CZ-2D R/B 3.3 21:03:45 10° S 21:07:36 84° WSW 21:11:31 10° NNW
Cosmos 2322 Rocket 3.7 21:04:05 10° NNE 21:08:04 20° ENE 21:12:02 10° ESE
YAOGAN 6 2.9 21:05:21 10° SSE 21:08:55 48° ENE 21:12:29 10° N
Cosmos 1242 Rocket 4.3 21:11:06 10° NE 21:13:26 16° ENE 21:15:05 12° ESE
SL-16 R/B 3.4 21:13:42 10° N 21:18:22 26° ENE 21:22:11 13° ESE
Mugunghwa Rocket 4.4 21:15:53 10° WSW 21:22:39 60° S 21:30:15 10° E
Thor Agena Rocket 3.7 21:17:30 10° N 21:22:46 83° WNW 21:27:55 10° SSW
FUSE 4.3 21:18:01 10° WSW 21:23:07 48° S 21:27:14 15° ESE
GPS 2-05 Rocket1 2.6 21:20:17 10° WSW 21:23:32 62° SSE 21:26:49 10° ENE
Delta 168 3.7 21:22:23 10° WSW 21:25:46 27° SSW 21:27:32 17° SSE
Spot 2 Rocket 4.0 21:25:07 14° SE 21:29:08 42° ENE 21:33:51 10° N
Timation 2 Rocket 4.1 21:23:15 10° SSW 21:29:12 76° WNW 21:35:14 10° NNE
Cosmos 468 Rocket 4.2 21:25:57 10° SSW 21:31:13 74° WNW 21:36:27 10° NNE
Resurs 1-3 3.6 21:27:19 11° SSE 21:31:23 65° ENE 21:35:44 10° N
Cosmos 1763 Rocket 3.5 21:30:18 10° S 21:35:34 72° ESE 21:40:51 10° NNE
Cosmos 1937 Rocket 4.4 21:34:32 10° N 21:39:05 31° ENE 21:41:34 21° ESE
Cosmos 841 Rocket 3.6 21:37:05 10° S 21:42:09 54° ESE 21:47:16 10° NNE
USA 186 3.2 21:44:10 10° SSW 21:47:06 36° W 21:50:12 10° NNW
ERS-2 2.3 21:44:19 16° S 21:47:13 71° WSW 21:50:53 10° NNW
Cosmos 2346 Rocket 4.4 21:41:37 10° N 21:47:50 80° E 21:53:24 13° S
DELTA 2 R/B (1) 3.9 21:43:10 10° SSW 21:48:19 40° SE 21:53:21 11° ENE
Cosmos 1975 Rocket 3.0 21:44:31 10° S 21:48:51 89° WNW 21:53:10 10° N
Cosmos 1666 2.6 21:52:48 10° N 21:56:41 89° W 21:58:43 27° S
Okean 1 Rocket 3.9 21:52:48 10° NNW 21:56:58 48° W 22:01:08 10° SSW
Cosmos 2360 Rocket 3.6 21:52:55 10° NNE 21:57:11 22° ENE 21:58:58 19° E
Cosmos 1975 3.0 21:53:14 10° N 21:57:14 71° W 21:59:52 20° S
Atlas Centaur 2 1.2 21:53:57 10° W 21:57:51 56° SSW 21:58:46 42° SE
Tsikada Rocket 4.4 21:52:16 10° NNW 21:58:37 66° W 22:04:55 10° S
Delta 142 4.4 21:52:12 10° W 21:59:39 74° S 22:02:52 28° ESE
Cosmos 1980 Rocket 3.5 21:54:46 10° NW 21:59:53 36° WSW 22:05:01 10° SSW
Meteor 1-19 Rocket 4.4 21:54:06 10° S 21:59:59 78° W 22:05:55 10° N
Delta 7925 Rocket 3.5 21:58:08 10° W 22:02:43 47° S 22:04:01 36° SE
USA 234 3.8 21:56:26 10° NNE 22:02:52 62° NW 22:09:20 10° WSW
Cosmos 858 Rocket 4.5 21:57:51 10° N 22:03:01 65° ENE 22:05:19 33° SE
GPS 2-04 Rocket1 3.8 22:00:48 10° W 22:04:38 35° SSW 22:05:40 30° S
Cosmos 292 Rocket 3.7 22:00:17 10° SSW 22:05:02 90° SE 22:09:48 10° NNE
ERS-1 Rocket 4.0 22:07:43 26° E 22:08:35 27° ENE 22:12:47 10° NNE
Iridium 2 3.8 22:08:17 26° SSW 22:10:18 72° W 22:14:08 10° N
Cosmos 1544 Rocket 4.0 22:06:57 10° N 22:11:11 43° E 22:11:44 41° ESE
Cosmos 1743 3.2 22:08:24 10° NNW 22:12:09 57° W 22:13:50 29° SSW
Meteor 2-9 Rocket 4.2 22:07:11 10° N 22:12:29 60° E 22:14:27 38° SE
Cosmos 1356 3.4 22:15:41 65° ENE 22:15:41 65° ENE 22:18:53 10° NNE
ATLAS CENTAUR R/B 4.1 22:12:52 10° WNW 22:15:55 17° WSW 22:19:02 10° SSW
Centaur D-1AR AC-41 4.0 22:14:56 10° WSW 22:18:06 23° SSW 22:18:06 23° SSW
SJ 16-02 3.1 22:17:37 10° NNE 22:20:26 19° ENE 22:20:26 19° ENE
Cosmos 1536 Rocket 3.5 22:21:53 56° ESE 22:22:15 59° E 22:26:38 10° NNE
CENTAUR R/B 3.3 22:17:15 10° SW 22:22:48 50° WNW 22:29:08 10° NNE
Meteor 1-23 Rocket 4.1 22:21:52 38° SSE 22:23:55 65° E 22:29:24 10° NNE
Cosmos 1898 Rocket 4.0 22:19:45 10° NNW 22:24:58 58° WSW 22:27:30 29° S
Resurs 01 Rocket 3.4 22:22:29 12° SSW 22:25:51 27° W 22:29:36 10° NW
H-2A R/B 2.0 22:29:02 53° ESE 22:29:47 59° ENE 22:34:42 10° N
SL-08 RB Rocket 3.7 22:30:45 59° E 22:31:01 60° ENE 22:35:30 10° N
Meteor 2-4 Rocket 4.3 22:28:17 11° SSW 22:33:21 54° W 22:38:46 10° N
Cosmos 1515 3.7 22:35:38 77° NW 22:35:38 77° NW 22:39:17 10° N
Aureole 2 Rocket 4.2 22:32:42 10° N 22:33:53 22° N 22:33:53 22° N
Cosmos 990 Rocket 4.3 22:32:13 10° NNW 22:37:22 63° WSW 22:38:57 43° SSW
Lacrosse 5 rocket 3.2 22:34:54 10° N 22:38:04 20° NE 22:38:05 20° NE
ARGOS 3.1 22:37:57 50° S 22:39:26 84° WSW 22:44:51 10° NNW
Cosmos 836 Rocket 4.4 22:45:34 50° SSW 22:46:58 83° WNW 22:52:11 10° NNE
Nadezhda 4 Rocket 4.3 22:41:39 10° N 22:47:42 46° E 22:48:05 46° E
Cosmos 2322 Rocket 3.0 22:46:57 10° NW 22:52:15 44° WSW 22:53:53 35° SW
Cosmos 2322 4.0 22:47:15 10° N 22:52:47 48° ENE 22:52:56 48° ENE
Skynet4D Del rocket 4.0 22:50:14 10° WSW 22:55:25 50° SSW 22:55:25 50° SSW
DMSP B5D2-2 4.0 22:51:15 10° NNE 22:56:33 87° WNW 22:57:07 72° SSW
Centaur D-1AR AC-36 3.3 22:33:05 10° W 22:58:09 49° SSW 22:59:00 47° S
SL-16 R/B 3.5 22:57:24 10° NW 23:02:25 33° WSW 23:04:05 28° SW
Cosmos 1025 Rocket 4.1 23:04:19 40° NNE 23:04:19 40° NNE 23:07:09 10° N
Terra 3.2 23:17:13 30° NNE 23:17:13 30° NNE 23:20:04 10° N
Cosmos 2219 3.3 23:16:32 69° NE 23:16:32 69° NE 23:21:35 10° NNE
SPOT 5 3.5 23:17:08 46° N 23:17:08 46° N 23:20:21 10° NNW
Mugunghwa Rocket 4.3 23:11:12 10° W 23:18:31 67° S 23:18:46 67° S
Cosmos 2237 4.3 23:17:51 10° NNW 23:23:05 75° NNW 23:23:05 75° NNW
DELTA 2 R/B (1) 4.1 23:29:12 10° WSW 23:34:19 57° NW 23:34:19 57° NW
CZ-2C R/B 3.9 23:34:23 10° NNE 23:37:38 34° NE 23:37:38 34° NE
Cosmos 2360 Rocket 3.2 23:36:02 10° NW 23:40:45 39° W 23:40:45 39° W
Cosmos 1634 Rocket 4.1 23:42:54 74° NNW 23:42:54 74° NNW 23:48:38 10° N
Cosmos 2219 Rocket 3.1 23:39:24 10° N 23:43:21 40° NNE 23:43:21 40° NNE
COSMOS 2455 4.0 23:54:03 34° NE 23:54:03 34° NE 23:57:20 10° NNE
